Total_Precipitation_Accumulation
0.50 0.46 0.54 0.64 0.60 0.62 0.78 0.80 0.70 0.44 0.40 0.46 0.41 0.37 0.35 0.32 0.30 0.30 0.34 0.35 0.35 0.39 0.43 0.47 0.53 0.56 0.56 0.59 0.67 0.76 0.92 1.03 1.10 1.18 1.31 1.39 1.43 1.47 1.47 1.57 1.62 1.62 1.65 1.65
0.47 0.32 0.38 0.48 0.42 0.44 0.46 0.44 0.46 0.38 0.44 0.46 0.41 0.34 0.34 0.34 0.33 0.33 0.37 0.37 0.38 0.42 0.46 0.49 0.50 0.53 0.51 0.52 0.61 0.70 0.85 0.92 1.00 1.15 1.28 1.43 1.46 1.54 1.57 1.59 1.64 1.63 1.62 1.63
0.78 0.38 0.57 0.72 0.49 0.43 0.43 0.40 0.41 0.48 0.52 0.45 0.41 0.38 0.38 0.36 0.36 0.36 0.37 0.36 0.37 0.44 0.48 0.51 0.52 0.50 0.50 0.50 0.55 0.62 0.75 0.85 0.92 1.08 1.18 1.29 1.34 1.36 1.42 1.38 1.35 1.41 1.49 1.45
1.10 0.83 1.16 0.65 0.37 0.36 0.38 0.41 0.40 0.43 0.46 0.45 0.47 0.45 0.40 0.38 0.38 0.38 0.38 0.37 0.36 0.40 0.44 0.46 0.50 0.52 0.51 0.50 0.54 0.61 0.69 0.78 0.81 0.95 1.08 1.13 1.20 1.24 1.25 1.20 1.18 1.26 1.28 1.21
1.43 1.10 0.69 0.35 0.28 0.38 0.45 0.52 0.43 0.38 0.38 0.38 0.41 0.42 0.45 0.42 0.37 0.39 0.38 0.37 0.36 0.38 0.41 0.42 0.45 0.49 0.50 0.51 0.53 0.58 0.65 0.72 0.75 0.84 1.00 1.02 1.09 1.17 1.15 1.17 1.16 1.13 1.10 1.05
1.55 1.19 0.65 0.36 0.22 0.26 0.41 0.62 0.40 0.34 0.38 0.40 0.40 0.58 0.58 0.50 0.43 0.40 0.37 0.34 0.36 0.38 0.38 0.41 0.43 0.43 0.45 0.47 0.49 0.54 0.62 0.70 0.71 0.76 0.88 0.89 0.93 1.00 1.03 1.04 1.08 1.10 1.07 1.01
1.27 1.01 0.50 0.30 0.23 0.26 0.67 0.79 0.39 0.35 0.38 0.41 0.49 0.59 0.55 0.48 0.45 0.42 0.42 0.39 0.37 0.38 0.42 0.43 0.43 0.44 0.46 0.46 0.46 0.50 0.56 0.62 0.67 0.73 0.80 0.81 0.83 0.88 0.95 0.99 1.03 1.07 1.08 1.01
0.95 1.04 0.59 0.30 0.31 0.54 0.67 0.40 0.34 0.34 0.36 0.39 0.38 0.36 0.37 0.40 0.42 0.41 0.43 0.43 0.40 0.41 0.45 0.44 0.43 0.43 0.43 0.46 0.46 0.47 0.54 0.62 0.66 0.70 0.74 0.76 0.80 0.86 0.89 0.97 1.09 1.11 1.07 1.05
0.71 0.66 0.47 0.37 0.43 0.45 0.36 0.32 0.29 0.32 0.34 0.34 0.34 0.33 0.35 0.36 0.38 0.39 0.41 0.42 0.40 0.42 0.46 0.46 0.46 0.43 0.42 0.45 0.45 0.47 0.54 0.59 0.65 0.70 0.69 0.77 0.81 0.88 0.94 1.01 1.11 1.12 1.06 1.03
0.45 0.36 0.30 0.31 0.31 0.31 0.29 0.28 0.27 0.28 0.32 0.32 0.33 0.32 0.33 0.33 0.36 0.38 0.38 0.37 0.36 0.39 0.44 0.46 0.47 0.46 0.45 0.46 0.47 0.50 0.54 0.55 0.60 0.69 0.73 0.75 0.81 0.87 0.90 0.95 1.11 1.17 1.12 1.09
0.40 0.29 0.24 0.23 0.24 0.27 0.27 0.23 0.21 0.23 0.26 0.28 0.29 0.30 0.31 0.34 0.36 0.38 0.38 0.36 0.35 0.37 0.41 0.45 0.46 0.46 0.46 0.49 0.53 0.55 0.54 0.54 0.58 0.67 0.72 0.73 0.77 0.83 0.89 0.90 1.11 1.30 1.22 1.21
0.38 0.26 0.29 0.25 0.20 0.20 0.23 0.22 0.21 0.23 0.26 0.25 0.25 0.28 0.29 0.31 0.34 0.34 0.34 0.35 0.34 0.34 0.38 0.41 0.43 0.44 0.47 0.52 0.57 0.60 0.59 0.59 0.62 0.69 0.71 0.72 0.75 0.81 0.91 0.95 1.02 1.05 1.10 1.19
0.27 0.22 0.22 0.20 0.16 0.15 0.19 0.21 0.20 0.22 0.26 0.28 0.24 0.25 0.29 0.32 0.32 0.32 0.32 0.33 0.35 0.35 0.36 0.37 0.38 0.41 0.46 0.53 0.58 0.60 0.63 0.66 0.68 0.71 0.71 0.74 0.72 0.75 0.87 0.90 0.92 0.94 0.97 1.03
0.20 0.20 0.21 0.15 0.15 0.14 0.16 0.18 0.17 0.18 0.20 0.24 0.26 0.26 0.30 0.32 0.32 0.31 0.31 0.32 0.32 0.33 0.35 0.35 0.36 0.39 0.46 0.54 0.59 0.63 0.66 0.73 0.76 0.74 0.73 0.74 0.72 0.72 0.78 0.89 0.99 1.01 1.03 1.06
0.17 0.18 0.19 0.16 0.13 0.12 0.13 0.15 0.17 0.19 0.20 0.22 0.26 0.30 0.33 0.35 0.34 0.32 0.31 0.30 0.29 0.30 0.33 0.35 0.37 0.41 0.47 0.53 0.59 0.65 0.71 0.75 0.78 0.78 0.77 0.74 0.73 0.76 0.78 0.82 0.92 1.04 1.10 1.14
0.20 0.17 0.16 0.15 0.14 0.13 0.14 0.16 0.19 0.22 0.23 0.25 0.26 0.29 0.34 0.37 0.37 0.35 0.33 0.32 0.32 0.33 0.35 0.38 0.40 0.45 0.50 0.56 0.61 0.69 0.77 0.86 0.87 0.83 0.83 0.79 0.79 0.81 0.84 0.87 0.92 1.00 1.08 1.14
0.26 0.22 0.19 0.17 0.16 0.16 0.17 0.19 0.22 0.23 0.24 0.26 0.28 0.29 0.32 0.36 0.37 0.36 0.35 0.35 0.36 0.37 0.37 0.39 0.45 0.48 0.51 0.57 0.66 0.75 0.81 0.86 0.90 0.88 0.87 0.86 0.88 0.89 0.90 0.94 0.98 0.98 1.01 1.09
0.25 0.25 0.22 0.22 0.21 0.20 0.18 0.18 0.20 0.22 0.25 0.28 0.29 0.30 0.32 0.35 0.40 0.40 0.39 0.38 0.36 0.36 0.37 0.41 0.49 0.52 0.53 0.60 0.70 0.77 0.83 0.85 0.82 0.84 0.88 0.92 0.96 0.96 0.98 0.99 0.98 1.00 1.02 1.05
0.20 0.20 0.19 0.18 0.19 0.19 0.19 0.19 0.20 0.21 0.23 0.26 0.28 0.30 0.33 0.38 0.42 0.45 0.43 0.41 0.39 0.39 0.43 0.46 0.54 0.53 0.56 0.66 0.76 0.80 0.85 0.87 0.85 0.84 0.87 0.96 0.96 0.91 0.94 0.97 1.00 1.01 1.00 1.01
0.18 0.18 0.18 0.17 0.17 0.19 0.20 0.19 0.19 0.20 0.23 0.25 0.27 0.29 0.31 0.36 0.42 0.46 0.44 0.43 0.45 0.47 0.48 0.53 0.53 0.54 0.60 0.72 0.84 0.84 0.85 0.85 0.86 0.89 0.91 0.92 0.93 0.93 0.93 0.95 1.01 1.06 1.04 1.02
0.19 0.20 0.20 0.20 0.19 0.17 0.19 0.20 0.21 0.22 0.25 0.28 0.32 0.35 0.37 0.40 0.43 0.46 0.46 0.46 0.47 0.49 0.51 0.54 0.55 0.62 0.72 0.83 0.86 0.82 0.83 0.84 0.88 0.94 0.98 0.97 0.98 0.97 0.96 0.97 1.01 1.06 1.05 1.03
0.23 0.25 0.24 0.24 0.23 0.22 0.22 0.23 0.25 0.26 0.28 0.31 0.34 0.39 0.41 0.43 0.45 0.46 0.47 0.51 0.54 0.58 0.54 0.51 0.57 0.70 0.84 0.86 0.78 0.78 0.79 0.83 0.89 0.97 1.02 1.02 1.02 1.02 0.98 0.98 1.04 1.04 1.02 1.01
0.28 0.29 0.30 0.30 0.32 0.31 0.29 0.30 0.32 0.33 0.36 0.38 0.41 0.43 0.45 0.48 0.50 0.52 0.52 0.52 0.54 0.57 0.55 0.55 0.61 0.74 0.81 0.77 0.73 0.74 0.77 0.81 0.88 0.97 1.02 1.05 1.06 1.05 1.03 1.03 1.06 1.08 1.07 1.02
0.31 0.32 0.34 0.36 0.36 0.34 0.34 0.35 0.36 0.39 0.42 0.44 0.47 0.49 0.50 0.50 0.50 0.51 0.55 0.55 0.57 0.58 0.57 0.60 0.65 0.73 0.77 0.72 0.69 0.73 0.78 0.83 0.92 1.01 1.06 1.07 1.07 1.05 1.05 1.09 1.14 1.10 1.04 0.99
0.35 0.36 0.36 0.37 0.39 0.39 0.39 0.36 0.34 0.36 0.38 0.41 0.43 0.45 0.48 0.52 0.59 0.59 0.55 0.54 0.56 0.58 0.58 0.61 0.66 0.71 0.71 0.69 0.70 0.75 0.82 0.91 1.05 1.17 1.18 1.15 1.09 1.08 1.06 1.11 1.15 1.12 1.05 0.99
0.42 0.43 0.43 0.45 0.46 0.46 0.45 0.43 0.42 0.42 0.42 0.42 0.42 0.43 0.47 0.52 0.59 0.61 0.59 0.57 0.58 0.61 0.62 0.65 0.67 0.70 0.69 0.70 0.73 0.79 0.85 0.93 1.06 1.14 1.11 1.08 1.07 1.08 1.09 1.10 1.10 1.08 1.05 1.01
0.46 0.45 0.45 0.46 0.47 0.48 0.51 0.53 0.53 0.54 0.55 0.55 0.52 0.49 0.51 0.56 0.59 0.60 0.58 0.57 0.58 0.60 0.63 0.67 0.69 0.70 0.71 0.74 0.79 0.83 0.86 0.91 1.03 1.14 1.13 1.09 1.09 1.09 1.08 1.07 1.08 1.08 1.07 1.05